Location: *
(46.4000°N, 12.6667°E)
Time: 07:21:08
(UTC+00:00)

Cosmos 1174 - Pass Details

Date: 09 April 2020
Orbit: 370 x 1148 km, 66.1° (Epoch: 03 June)

Event Time Altitude Azimuth Distance (km) Brightness Sun altitude
Rises 19:55:00 0° 325° (NW) 2,670 8.7 -20.4°
Reaches altitude 10° 19:56:58 10° 325° (NW) 1,875 7.6 -20.6°
Maximum altitude 20:01:11 86° 237° (WSW) 673 4.1 -21.2°
Enters shadow 20:02:25 51° 151° (SSE) 870 4.4 -21.4°
